Satellite-Ground Cal/Val Region Overpasses Predictions

Prediction of Satellite NPP Overpassing Cal/Val Region: PacNW

Region Location: (Latitude: 10.00, Longitude: 139.50) to (Latitude: 22.70, Longitude: 165.60).

Table of predicted overpasses for the next 14.0 days since TLE Epoch: 5/13/2023
Interval Starting Time Starting Location Ending Time Ending Location
1 05/13/2023 15:38:29 ( 22.66, 150.84) 05/13/2023 15:42:04 ( 10.04, 147.85)
2 05/14/2023 02:47:34 ( 10.04, 158.38) 05/14/2023 02:51:09 ( 22.66, 155.39)
3 05/14/2023 15:19:26 ( 22.66, 155.60) 05/14/2023 15:23:01 ( 10.04, 152.60)
4 05/15/2023 02:28:31 ( 10.03, 163.14) 05/15/2023 02:32:06 ( 22.66, 160.14)
5 05/15/2023 15:00:24 ( 22.67, 160.36) 05/15/2023 15:03:59 ( 10.04, 157.36)
6 05/16/2023 02:12:16 ( 19.84, 165.59) 05/16/2023 02:13:04 ( 22.66, 164.90)
7 05/16/2023 03:50:59 ( 10.04, 142.52) 05/16/2023 03:54:34 ( 22.67, 139.52)
8 05/16/2023 14:41:22 ( 22.67, 165.11) 05/16/2023 14:44:57 ( 10.04, 162.12)
9 05/16/2023 16:22:52 ( 22.66, 139.74) 05/16/2023 16:23:08 ( 21.72, 139.50)
10 05/17/2023 03:31:56 ( 10.04, 147.28) 05/17/2023 03:35:31 ( 22.67, 144.28)
11 05/17/2023 16:03:49 ( 22.66, 144.50) 05/17/2023 16:07:24 ( 10.04, 141.50)
12 05/18/2023 03:12:54 ( 10.04, 152.03) 05/18/2023 03:16:29 ( 22.67, 149.04)
13 05/18/2023 15:44:47 ( 22.65, 149.25) 05/18/2023 15:48:22 ( 10.03, 146.26)
14 05/19/2023 02:53:51 ( 10.05, 156.79) 05/19/2023 02:57:26 ( 22.67, 153.79)
15 05/19/2023 15:25:44 ( 22.65, 154.01) 05/19/2023 15:29:19 ( 10.03, 151.01)
16 05/20/2023 02:34:49 ( 10.05, 161.55) 05/20/2023 02:38:24 ( 22.68, 158.55)
17 05/20/2023 15:06:42 ( 22.65, 158.77) 05/20/2023 15:10:17 ( 10.03, 155.77)
18 05/21/2023 02:16:39 ( 13.17, 165.59) 05/21/2023 02:19:21 ( 22.68, 163.31)
19 05/21/2023 03:57:15 ( 10.01, 140.94) 05/21/2023 03:59:00 ( 16.18, 139.51)
20 05/21/2023 14:47:38 ( 22.70, 163.54) 05/21/2023 14:51:14 ( 10.02, 160.53)
21 05/22/2023 03:38:13 ( 10.02, 145.70) 05/22/2023 03:41:49 ( 22.70, 142.69)
22 05/22/2023 14:31:49 ( 11.36, 165.59) 05/22/2023 14:32:12 ( 10.01, 165.28)
23 05/22/2023 16:10:06 ( 22.68, 142.92) 05/22/2023 16:13:42 ( 10.00, 139.91)
24 05/23/2023 03:19:10 ( 10.02, 150.45) 05/23/2023 03:22:45 ( 22.65, 147.46)
25 05/23/2023 15:51:03 ( 22.67, 147.67) 05/23/2023 15:54:38 ( 10.05, 144.67)
26 05/24/2023 03:00:08 ( 10.04, 155.21) 05/24/2023 03:03:43 ( 22.66, 152.21)
27 05/24/2023 15:32:01 ( 22.66, 152.43) 05/24/2023 15:35:36 ( 10.04, 149.43)
28 05/25/2023 02:41:06 ( 10.05, 159.96) 05/25/2023 02:44:41 ( 22.67, 156.97)
29 05/25/2023 15:12:58 ( 22.65, 157.18) 05/25/2023 15:16:33 ( 10.03, 154.19)
30 05/26/2023 02:22:02 ( 10.00, 164.73) 05/26/2023 02:25:38 ( 22.69, 161.72)
